User: anonymous   Login
Location: Eymir
(36.7333°N, 29.7833°E)
Time: 06:23:51
(UTC+00:00)
Language:

IRS-1D - Orbit

View from above orbital plane
View from above orbital plane
View from above satellite
View from above satellite

Ground track
Ground track

The orbit is defined by the following mean orbital elements,

1 24971U          26075.84513270 +.00000000 +00000-0 +86759-4 0 00005
2 24971  98.8401  67.9561 0052841 138.8978 221.6206 14.35474246    02
Epoch (UTC): 16 March 2026 20:16:59
Eccentricity: 0.0052841
inclination: 98.8401°
perigee height: 736 km
apogee height: 811 km
right ascension of ascending node: 67.9561°
argument of perigee: 138.8978°
revolutions per day: 14.35474246
mean anomaly at epoch: 221.6206°

The dashed part of the orbit path shows where the satellite is in the earth's shadow,  

DLR